Simultaneous Nadir Overpasses (SNOs) Predictions

Prediction of SNOs between GOES-14 and NOAA-20 Satellite Orbit:

Table of predicted SNOs for the next 14.0 days since TLE Epoch: 10/8/2022
Index Date Time (GOES-14) GOES-14 Lat,Lon NOAA-20 Lat,Lon Distance(km) Time Diff (sec)
1 10/08/2022 20:17:14 -0.25,-104.34 0.12,-102.78 177.92 80
2 10/10/2022 08:39:02 0.22,-104.38 1.02,-108.06 418.83 80
3 10/11/2022 08:17:36 0.24,-104.37 0.06,-103.52 96.19 80
4 10/13/2022 20:23:28 -0.22,-104.31 -0.23,-104.30 2.09 80
5 10/16/2022 08:26:32 0.21,-104.38 0.33,-105.05 75.57 80
6 10/17/2022 08:05:07 0.22,-104.36 -0.63,-100.51 439.31 80
7 10/18/2022 20:27:03 -0.19,-104.28 -0.55,-105.81 175.21 80
8 10/19/2022 20:10:58 -0.20,-104.29 0.48,-101.29 342.53 80
9 10/21/2022 08:32:47 0.16,-104.40 0.64,-106.57 247.28 80
